DECAYED

FENGYUN 1C DEB, 31048 (Decayed)

Orbit data source: Space-Track

FENGYUN 1C DEB, 31048 was space debris in SSO originally from a launch on Mon, 10 May 1999 UTC launched from the Taiyaun Space Center, China (TSC). Fengyun 1C debris stems from the Chinese weather satellite Fengyun-1C, which was intentionally destroyed by a Chinese anti-satellite missile in 2007. This event dramatically increased the amount of space debris, with thousands of trackable fragments posing hazards to satellites and human spaceflight. The Fengyun 1C debris cloud has become a focal point in discussions about space sustainability and the need for international regulations to prevent the creation of new debris.

Not visible in the next 10 days
Identifier
31048, 1999-025BES
Orbit
Decayed
Country
Flag of CNCN / PRC
Related business
Manufacturer
Unknown
Mission
Decayed spacecraft
Bus & Motor
Unknown
Mass
Unknown
Launch date (UTC)
1999-05-10 (27 years ago)
Launch vehicle
Unknown
Launch site
Taiyaun Space Center, China (TSC)
Object type
Payload
Rocket body
Debris
Shape & HBR
Unknown shape, 0.1 m
Radar Cross Section
Medium (>0.1 m² and <1 m²)

Expand to show TLE details & history
Last TLE update: 8 months ago

TLE from 8 months ago
0 FENGYUN 1C DEB
1 31048U 99025BES 25296.24424707  .09837156  00000-0  34004-1 0  9996
2 31048  99.0081 209.9492 0019767 149.4363   2.2289 15.84119351972212
Epoch: 2025-10-23T05:51Z
TLE epoch observation values (Epoch: 2025-10-23T05:51:42.946Z)
Latitude
27.99296°
Longitude
-85.07956°
Altitude
309.171 km
Speed
7.733 km/s
True Right ascension
02h 19m 01s
True Declination
27° 50' 28"
Sunlit
Object was in full shadow at epoch
Visualization orbit readout
Latitude
Unknown
Longitude
Unknown
Altitude
Unknown
Speed
Unknown
Apparent Right ascension
Unknown
Apparent Declination
Unknown
Sunlit
N/A
Visualization observer readout
Local Sidereal Time
11:44:42
Azimuth
Unknown
Elevation
Unknown
Doppler factor
Unknown
Orbital elements
Apogee altitude
328.996 km
Perigee altitude
302.533 km
Semi-major axis
6,693.901 km
Eccentricity
0.00198
Inclination
99.0081°
RAAN
209.9492°
Arg. of periapsis
149.4363°
True anomaly
2.23773°
Mean anomaly
2.2289°
Eccentric anomaly
2.23331°
Mean motion
3.963 °/min
Orbital period
90.84 mins
BSTAR
0.034004
Loading maneuver chart data...
Computing Atmospheric mass density...

Documentation

Showing up to 5 results
|